Location: Isola Pescaroli
(45.0500°N, 10.1667°E)
Time: 00:21:53
(UTC+00:00)

H-2A R/B - Pass Details

Date: 03 March 2021
Orbit: 732 x 838 km, 98.2° (Epoch: 18 April)

Event Time Altitude Azimuth Distance (km) Brightness Sun altitude
Rises 17:59:51 0° 167° (SSE) 3,362 5.2 -9.7°
Reaches altitude 10° 18:02:12 10° 168° (SSE) 2,439 4.5 -10.1°
Maximum altitude 18:07:38 83° 257° (WSW) 851 2.3 -11.1°
Drops below altitude 10° 18:13:07 10° 345° (NNW) 2,456 4.8 -12.0°
Sets 18:15:29 0° 346° (NNW) 3,387 5.6 -12.4°
